• Join FlightAware (Why Join?)
  • Login
  • US Flag 
01:59AM EDT


 

Airport Tracker/Info


-or-


 

Live Flight TrackerFlight Track Log ✈ GJS3615 ✈ 24-Apr-2013 ✈ KORD - KGSO

Flight Track Log - Related Links

Times and Time Zones

All times are in EDT time to prevent confusion due to time zone crossing. See the GJS3615 flight status page for this flight to view local times or setup timezone preferences in your user account.

Time Position Orientation Groundspeed Altitude Reporting Facility
EDT Latitude Longitude Course Direction KTS MPH feet Rate Location/Type
09:58AM 41.9333 -87.8833 86° East 196 226 2,400  Level Chicago TRACON
09:59AM 41.8833 -87.8333 143° Southeast 237 273 5,000 2,400 Climbing Chicago TRACON
10:00AM 41.8667 -87.7333 103° East 276 318 7,300 2,460 Climbing Chicago TRACON
10:02AM 41.9333 -86.9874 90° East  Level FlightAware Approximate
10:02AM 41.8922 -87.5181 81° East 300 345 12,600  Level Chicago Center
10:03AM 41.9388 -86.8047 86° East  Level FlightAware Approximate
10:03AM 41.9064 -87.3983 81° East 320 368 15,200  Level Chicago Center
10:04AM 41.9175 -87.2678 83° East 343 395 16,400 1,140 Climbing Chicago Center
10:05AM 41.9011 -87.1217 99° East 387 445 17,600 1,380 Climbing Chicago Center
10:06AM 41.8883 -86.9694 96° East 405 466 19,300 1,800 Climbing Chicago Center
10:07AM 41.8714 -86.7833 97° East 417 480 21,400 1,740 Climbing Chicago Center
10:08AM 41.8539 -86.6178 98° East 438 504 23,000 1,620 Climbing Chicago Center
10:09AM 41.8386 -86.4467 97° East 456 525 24,800 1,740 Climbing Chicago Center
10:10AM 41.8217 -86.2739 97° East 465 535 26,700 1,740 Climbing Chicago Center
10:11AM 41.8050 -86.1003 97° East 470 541 28,500 1,200 Climbing Chicago Center
10:12AM 41.7869 -85.9258 98° East 472 543 29,300 1,080 Climbing Chicago Center
10:13AM 41.7686 -85.7522 98° East 470 541 30,800 1,320 Climbing Chicago Center
10:14AM 41.7472 -85.5344 97° East 485 558 32,100 1,140 Climbing Chicago Center
10:15AM 41.7264 -85.3453 98° East 495 570 33,200 1,140 Climbing Chicago Center
10:16AM 41.7078 -85.1572 97° East 500 575 34,500 1,260 Climbing Chicago Center
10:17AM 41.6883 -84.9714 98° East 489 563 35,900 1,140 Climbing Cleveland Center
10:18AM 41.6697 -84.7950 98° East 483 556 37,000 540 Climbing Cleveland Center
10:19AM 41.6428 -84.6181 101° East 483 556 37,000  Level Cleveland Center
10:21AM 41.4819 -84.3861 133° Southeast 427 491 37,000  Level Cleveland Center
10:22AM 41.3886 -84.3033 146° Southeast 414 476 37,000  Level Cleveland Center
10:23AM 41.2933 -84.2203 147° Southeast 409 471 37,000  Level Cleveland Center
10:24AM 41.2022 -84.1381 146° Southeast 404 465 37,000  Level Cleveland Center
10:25AM 41.1086 -84.0586 147° Southeast 404 465 37,000  Level Cleveland Center
10:26AM 41.0678 -84.0242 148° Southeast 397 457 37,000  Level Indianapolis Center
10:27AM 40.9786 -83.9467 147° Southeast 397 457 37,000  Level Indianapolis Center
10:28AM 40.8856 -83.8667 147° Southeast 396 456 37,000  Level Indianapolis Center
10:29AM 40.7931 -83.7869 147° Southeast 394 453 37,000  Level Indianapolis Center
10:30AM 40.6997 -83.7058 147° Southeast 397 457 37,000  Level Indianapolis Center
10:31AM 40.6061 -83.6258 147° Southeast 398 458 37,000  Level Indianapolis Center
10:32AM 40.4978 -83.5331 147° Southeast 394 453 37,000  Level Indianapolis Center
10:33AM 40.4033 -83.4531 147° Southeast 397 457 37,000  Level Indianapolis Center
10:34AM 40.3064 -83.3717 147° Southeast 407 468 37,000  Level Indianapolis Center
10:35AM 40.2083 -83.2892 147° Southeast 410 472 37,000  Level Indianapolis Center
10:36AM 40.1089 -83.2061 147° Southeast 415 478 37,000  Level Indianapolis Center
10:37AM 40.0083 -83.1197 147° Southeast 422 486 37,000  Level Indianapolis Center
10:38AM 39.9058 -83.0358 148° Southeast 428 493 37,000  Level Indianapolis Center
10:39AM 39.8036 -82.9494 147° Southeast 430 495 37,000  Level Indianapolis Center
10:40AM 39.7047 -82.8544 144° Southeast 439 505 37,000  Level Indianapolis Center
10:41AM 39.6103 -82.7403 137° Southeast 457 526 37,000  Level Indianapolis Center
10:42AM 39.5181 -82.6253 136° Southeast 456 525 37,000  Level Indianapolis Center
10:43AM 39.4239 -82.5117 137° Southeast 458 527 37,000  Level Indianapolis Center
10:44AM 39.3231 -82.3886 137° Southeast 462 532 37,000  Level Indianapolis Center
10:45AM 39.2283 -82.2753 137° Southeast 463 533 37,000  Level Indianapolis Center
10:46AM 39.1342 -82.1575 136° Southeast 468 539 37,000  Level Indianapolis Center
10:47AM 39.0381 -82.0425 137° Southeast 473 544 37,000  Level Indianapolis Center
10:48AM 38.9419 -81.9272 137° Southeast 472 543 37,000  Level Indianapolis Center
10:49AM 38.8456 -81.8117 137° Southeast 474 545 37,000 -420 Level Indianapolis Center
10:50AM 38.7289 -81.6731 137° Southeast 471 542 36,200 -840 Descending Indianapolis Center
10:51AM 38.6342 -81.5600 137° Southeast 465 535 35,300 -840 Descending Indianapolis Center
10:52AM 38.5503 -81.4628 138° Southeast 455 524 34,500 -840 Descending Indianapolis Center
10:53AM 38.4578 -81.3550 138° Southeast 452 520 33,600 -960 Descending Indianapolis Center
10:54AM 38.3619 -81.2431 137° Southeast 464 534 32,600 -1,080 Descending Indianapolis Center
10:55AM 38.2442 -81.1056 137° Southeast 480 552 31,400 -1,080 Descending Indianapolis Center
10:56AM 38.2086 -81.0700 142° Southeast 485 558 31,200 -900 Descending Washington Center
10:57AM 38.1194 -80.9683 138° Southeast 485 558 30,200 -1,080 Descending Washington Center
10:58AM 38.0492 -80.8772 134° Southeast 476 548 29,400 -1,020 Descending Indianapolis Center
10:58AM 38.0244 -80.8561 146° Southeast 485 558 29,200 -960 Descending Washington Center
10:59AM 37.9311 -80.7469 137° Southeast 470 541 28,200 -1,080 Descending Washington Center
11:00AM 37.8294 -80.6322 138° Southeast 460 529 27,100 -1,200 Descending Washington Center
11:01AM 37.7378 -80.5289 138° Southeast 455 524 25,800 -1,380 Descending Washington Center
11:02AM 37.6483 -80.4258 138° Southeast 444 511 24,400 -1,500 Descending Washington Center
11:03AM 37.5625 -80.3261 137° Southeast 439 505 22,900 -1,500 Descending Washington Center
11:04AM 37.4825 -80.2372 139° Southeast 434 499 21,500 -1,500 Descending Washington Center
11:05AM 37.3967 -80.1406 138° Southeast 429 494 20,000 -1,500 Descending Washington Center
11:06AM 37.3056 -80.0672 147° Southeast 416 479 18,500 -1,560 Descending Washington Center
11:07AM 37.1950 -80.0633 178° South 367 422 16,900 -1,620 Descending Washington Center
11:08AM 37.0994 -80.0553 176° South 362 417 15,400 -1,500 Descending Washington Center
11:09AM 37.0100 -80.0475 176° South 340 391 13,900 -1,500 Descending Washington Center
11:10AM 36.9286 -80.0428 177° South 329 379 12,500 -1,440 Descending Washington Center
11:12AM 36.7429 -80.0167 180° South  Level FlightAware Approximate
11:19AM 36.1013 -79.9411 28° Northeast  Level Estimated
11:20AM 36.1000 -79.9333 28° Northeast  Level FlightAware Approximate
11:21AM 36.1013 -79.9411 28° Northeast  Level Estimated
11:22AM 36.1000 -79.9333 28° Northeast  Level FlightAware Approximate
11:23AM 36.1013 -79.9411 28° Northeast  Level Estimated
11:24AM 36.1000 -79.9333 28° Northeast  Level FlightAware Approximate
11:25AM 36.1013 -79.9411 28° Northeast  Level Estimated